Location: Demmingen
(48.6757°N, 10.4375°E)
Time: 10:16:28
(UTC+00:00)

Genesis I - Pass Details

Date: 23 May 2024
Orbit: 433 x 467 km, 64.5° (Epoch: 15 June)

Event Time Altitude Azimuth Distance (km) Brightness Sun altitude
Exits shadow 02:05:15 17° 219° (SW) 1,199 4.4 -11.0°
Maximum altitude 02:07:50 88° 307° (NW) 458 2.9 -10.7°
Drops below altitude 10° 02:11:24 10° 39° (NE) 1,603 7.3 -10.3°
Sets 02:13:32 0° 40° (NE) 2,488 9.0 -10.1°
